This is the latest recevied weather packets stored in our database for station/object W8BS. If no packets are shown the sender has not sent any weather packets the latest 10 day(s).
| Time | Temp. | Humidity | Pressure | Rain* | Wind** | Luminosity | Snow |
|---|---|---|---|---|---|---|---|
| 1777962836 | 16.67° C | 57% | 1010.9 hPa | 0 mm | - | 0 W/m² | - |
| 1777962533 | 16.67° C | 57% | 1010.7 hPa | 0 mm | - | 0 W/m² | - |
| 1777962230 | 16.67° C | 57% | 1010.7 hPa | 0 mm | - | 0 W/m² | - |
| 1777961927 | 16.67° C | 58% | 1010.9 hPa | 0 mm | - | 0 W/m² | - |
| 1777961625 | 16.67° C | 56% | 1010.8 hPa | 0 mm | - | 0 W/m² | - |
| 1777961322 | 16.67° C | 56% | 1010.7 hPa | 0 mm | - | 0 W/m² | - |
| 1777961019 | 16.67° C | 58% | 1010.9 hPa | 0 mm | - | 0 W/m² | - |
| 1777960715 | 16.67° C | 56% | 1010.9 hPa | 0 mm | - | 0 W/m² | - |
| 1777960411 | 16.67° C | 57% | 1010.7 hPa | 0 mm | - | 0 W/m² | - |
| 1777960108 | 16.67° C | 57% | 1010.7 hPa | 0 mm | - | 0 W/m² | - |
| 1777959805 | 16.67° C | 57% | 1010.6 hPa | 0 mm | - | 0 W/m² | - |
| 1777959504 | 16.67° C | 57% | 1010.7 hPa | 0 mm | - | 0 W/m² | - |
| 1777959200 | 16.67° C | 57% | 1010.7 hPa | 0 mm | - | 0 W/m² | - |
| 1777958897 | 16.67° C | 57% | 1010.8 hPa | 0 mm | - | 0 W/m² | - |
| 1777958594 | 16.11° C | 60% | 1010.6 hPa | 0 mm | - | 0 W/m² | - |
| 1777958291 | 16.67° C | 59% | 1010.4 hPa | 0 mm | - | 0 W/m² | - |
| 1777957989 | 16.11° C | 60% | 1010.7 hPa | 0 mm | - | 0 W/m² | - |
| 1777957686 | 16.11° C | 60% | 1010.9 hPa | 0 mm | - | 0 W/m² | - |
| 1777957385 | 16.11° C | 61% | 1010.7 hPa | 0 mm | - | 0 W/m² | - |
| 1777957080 | 16.11° C | 61% | 1010.8 hPa | 0 mm | - | 0 W/m² | - |
| 1777956778 | 15.56° C | 62% | 1010.7 hPa | 0 mm | - | 0 W/m² | - |
| 1777956474 | 15.56° C | 62% | 1010.9 hPa | 0 mm | - | 0 W/m² | - |
| 1777956171 | 15.56° C | 61% | 1010.7 hPa | 0 mm | - | 0 W/m² | - |
| 1777955868 | 15.56° C | 62% | 1010.2 hPa | 0 mm | - | 0 W/m² | - |
| 1777955564 | 15° C | 65% | 1010.4 hPa | 0 mm | - | 0 W/m² | - |
* Rain latest hour (hover to see other rain measurements)
** Current wind speed in m/s (hover to see current wind gust speed)